Location: Whispering Pines Observatory
(39.4020°N, 104.7430°W)
Time: 11:12:12
(UTC-06:00)

MOS 1 Rocket - Visible Passes

Search period start: 03 September 2015 00:00
Search period end: 13 September 2015 00:00
Orbit: 615 x 832 km, 97.4° (Epoch: 01 September)

Date Brightness Start Highest point End Pass type
(mag) Time Alt. Az. Time Alt. Az. Time Alt. Az.
03 Sep 6.1 20:44:06 10° SW 20:48:19 22° W 20:52:17 10° NW visible
04 Sep 4.2 19:53:57 10° S 19:59:18 63° W 20:04:28 10° NNW visible
05 Sep 6.1 20:45:02 10° SW 20:49:07 21° W 20:52:57 10° NW visible
06 Sep 4.2 19:54:48 10° S 20:00:06 60° W 20:05:12 10° NNW visible
07 Sep 6.2 20:45:58 10° SW 20:49:55 20° W 20:53:37 10° NW visible
08 Sep 4.3 19:55:38 10° S 20:00:54 58° W 20:05:55 10° NNW visible
09 Sep 6.2 20:46:54 10° SW 20:50:43 19° W 20:54:15 10° NW visible
10 Sep 4.3 19:56:29 10° S 20:01:41 56° W 20:06:37 10° NNW visible
11 Sep 6.3 20:47:51 10° SW 20:51:30 18° W 20:54:52 10° NW visible
12 Sep 4.4 19:57:20 10° S 20:02:27 53° W 20:07:19 10° NNW visible
